Weather History for Arlington, TX

Change the Weather History Date:

Monday, December 17, 2012

  Actual Average (KRBD) Record (KRBD)
Temperature  
Mean Temperature 50 °F -  
Max Temperature 61 °F 54 °F 78 °F (2006)
Min Temperature 37 °F 35 °F 21 °F (2000)
Degree Days  
Heating Degree Days 15    
Moisture  
Dew Point 35 °F    
Average Humidity 59    
Maximum Humidity 83    
Minimum Humidity 36    
Precipitation  
Precipitation 0.00 in - - ()
Sea Level Pressure  
Sea Level Pressure 29.85 in    
Wind  
Wind Speed 6 mph (West)    
Max Wind Speed 13 mph    
Max Gust Speed 18 mph    
Visibility 10 miles    
Events      
Averages and records for this station are not official NWS values.
T = Trace of Precipitation, MM = Missing Value Source: NWS Daily Summary

Daily Weather History Graph

Daily Weather History Graph

Search for Another Location

Airport:

Trip Planner

Search our weather history database for the weather conditions in past years. The results will help you decide how hot, cold, wet, or windy it might be!

Date:

Astronomy

Dec. 17, 2012 Rise Set
Actual Time 7:24 AM CST 5:25 PM CST
Civil Twilight 6:57 AM CST 5:52 PM CST
Nautical Twilight 6:26 AM CST 6:23 PM CST
Astronomical Twilight 5:56 AM CST 6:53 PM CST
Moon 10:47 AM CST (12/17) 10:32 PM CST (12/17)
Length of Visible Light 10h 54m
Length of Day
10h 00m
Waxing Crescent, 25% of the Moon is Illuminated
Dec 17
Waxing Crescent
Dec 19
First Quarter
Dec 28
Full
Jan 4
Last Quarter
Jan 11
New

Hourly Weather History & Observations

Time (CST) Temp. Windchill Dew Point Humidity Pressure Visibility Wind Dir Wind Speed Gust Speed Precip Events Conditions
12:53 AM 46.9 °F - 37.9 °F 71% 29.76 in 10.0 mi SE 3.5 mph - N/A   Clear
1:53 AM 45.0 °F 41.2 °F 37.0 °F 74% 29.77 in 10.0 mi NNW 6.9 mph - N/A   Clear
2:53 AM 53.1 °F - 34.0 °F 48% 29.78 in 10.0 mi West 8.1 mph - N/A   Clear
3:53 AM 54.0 °F - 32.0 °F 43% 29.78 in 10.0 mi West 8.1 mph - N/A   Clear
4:53 AM 53.1 °F - 30.0 °F 41% 29.78 in 10.0 mi West 10.4 mph 17.3 mph N/A   Clear
5:53 AM 51.1 °F - 28.9 °F 43% 29.82 in 10.0 mi West 6.9 mph - N/A   Clear
6:53 AM 44.1 °F 37.7 °F 36.0 °F 73% 29.88 in 10.0 mi WNW 12.7 mph 18.4 mph N/A   Clear
7:53 AM 42.1 °F 37.7 °F 37.0 °F 82% 29.91 in 9.0 mi WNW 6.9 mph - N/A   Clear
8:53 AM 45.0 °F 40.1 °F 37.0 °F 74% 29.92 in 10.0 mi West 9.2 mph - N/A   Clear
9:53 AM 48.0 °F - 37.9 °F 68% 29.94 in 10.0 mi West 10.4 mph - N/A   Clear
10:53 AM 51.1 °F - 37.0 °F 59% 29.93 in 10.0 mi West 6.9 mph - N/A   Clear
11:53 AM 54.0 °F - 37.0 °F 53% 29.91 in 10.0 mi WNW 9.2 mph - N/A   Clear
12:53 PM 55.9 °F - 37.0 °F 49% 29.89 in 10.0 mi WNW 9.2 mph - N/A   Clear
1:53 PM 57.9 °F - 35.1 °F 42% 29.86 in 10.0 mi NW 4.6 mph - N/A   Clear
2:53 PM 60.1 °F - 33.1 °F 36% 29.82 in 10.0 mi WSW 4.6 mph - N/A   Clear
3:53 PM 61.0 °F - 35.1 °F 38% 29.83 in 10.0 mi SW 5.8 mph - N/A   Clear
6:53 PM 46.0 °F - 33.1 °F 61% 29.85 in 10.0 mi Calm Calm - N/A   Clear
7:53 PM 44.1 °F - 32.0 °F 63% 29.86 in 10.0 mi Calm Calm - N/A   Clear
8:53 PM 45.0 °F - 33.1 °F 63% 29.86 in 10.0 mi Calm Calm - N/A   Clear
9:53 PM 43.0 °F - 33.1 °F 68% 29.87 in 10.0 mi Calm Calm - N/A   Clear
10:53 PM 39.9 °F - 33.1 °F 77% 29.87 in 10.0 mi Calm Calm - N/A   Clear
11:53 PM 37.9 °F - 33.1 °F 83% 29.85 in 10.0 mi Calm Calm - N/A   Clear